Weather History for KBVE - July, 2013

Change the Weather History Date:

Sunday, July 7, 2013

  Actual Average Record
Temperature  
Mean Temperature 80 °F -  
Max Temperature 84 °F - - ()
Min Temperature 77 °F - - ()
Cooling Degree Days 16    
Growing Degree Days 30 (Base 50)    
Moisture  
Dew Point 75 °F    
Average Humidity 84    
Maximum Humidity 94    
Minimum Humidity 74    
Precipitation  
Precipitation 0.00 in - - ()
Sea Level Pressure  
Sea Level Pressure 30.06 in    
Wind  
Wind Speed 5 mph (SSE)    
Max Wind Speed 10 mph    
Max Gust Speed -    
Visibility 10 miles    
Events Rain    
T = Trace of Precipitation, MM = Missing Value Source: NWS Daily Summary

Daily Weather History Graph

Daily Weather History Graph

Search for Another Location

Airport or City:

Trip Planner

Search our weather history database for the weather conditions in past years. The results will help you decide how hot, cold, wet, or windy it might be!

Date:

Astronomy

Jul. 07, 2013 Rise Set
Actual Time 6:04 AM CDT 8:00 PM CDT
Civil Twilight 5:37 AM CDT 8:27 PM CDT
Nautical Twilight 5:04 AM CDT 9:00 PM CDT
Astronomical Twilight 4:30 AM CDT 9:34 PM CDT
Moon 5:35 AM CDT (7/7) 7:30 PM CDT (7/7)
Length of Visible Light 14h 50m
Length of Day
13h 56m
Waning Crescent, 0% of the Moon is Illuminated
Jul 7
Waning Crescent
Jul 8
New
Jul 15
First Quarter
Jul 22
Full
Jul 29
Last Quarter

Hourly Weather History & Observations

Time (CDT) Temp. Heat Index Dew Point Humidity Pressure Visibility Wind Dir Wind Speed Gust Speed Precip Events Conditions
12:51 AM 77.0 °F - 73.9 °F 90% 30.02 in 10.0 mi South 4.6 mph - N/A   Unknown
1:51 AM 77.0 °F - 73.9 °F 90% 30.01 in 10.0 mi SE 4.6 mph - N/A   Unknown
2:51 AM 77.0 °F - 73.9 °F 90% 30.00 in 10.0 mi SE 5.8 mph - N/A   Unknown
3:51 AM 77.0 °F - 75.0 °F 94% 30.02 in 10.0 mi SSE 4.6 mph - N/A   Unknown
4:51 AM 77.0 °F - 73.9 °F 90% 30.01 in 10.0 mi SE 4.6 mph - N/A   Unknown
5:51 AM 78.1 °F - 71.1 °F 79% 30.02 in 10.0 mi South 5.8 mph - N/A   Unknown
6:51 AM 78.1 °F - 72.0 °F 81% 30.03 in 10.0 mi Calm Calm - N/A   Unknown
7:51 AM 80.1 °F 84.5 °F 73.9 °F 81% 30.04 in 10.0 mi SSE 3.5 mph - N/A   Unknown
8:51 AM 81.0 °F 86.7 °F 75.0 °F 82% 30.07 in 10.0 mi South 3.5 mph - N/A   Unknown
9:51 AM 82.0 °F 88.6 °F 75.0 °F 79% 30.06 in 10.0 mi Variable 4.6 mph - N/A   Unknown
10:51 AM 82.9 °F 90.8 °F 75.9 °F 79% 30.08 in 10.0 mi ESE 4.6 mph - N/A   Unknown
11:51 AM 84.0 °F 92.6 °F 75.9 °F 76% 30.09 in 10.0 mi ESE 8.1 mph - N/A   Unknown
12:51 PM 82.9 °F 90.2 °F 75.0 °F 77% 30.10 in 10.0 mi SSE 10.4 mph - N/A   Unknown
1:51 PM 81.0 °F 85.2 °F 72.0 °F 74% 30.08 in 10.0 mi SSE 3.5 mph - 0.00 in Rain Light Rain
2:51 PM 82.9 °F 90.2 °F 75.0 °F 77% 30.07 in 10.0 mi ESE 6.9 mph - N/A   Unknown
3:51 PM 82.9 °F 90.2 °F 75.0 °F 77% 30.06 in 10.0 mi SE 5.8 mph - N/A   Unknown
4:51 PM 82.9 °F 90.8 °F 75.9 °F 79% 30.05 in 10.0 mi SSE 6.9 mph - N/A   Unknown
5:51 PM 82.0 °F 89.4 °F 75.9 °F 82% 30.05 in 10.0 mi SSE 5.8 mph - N/A   Unknown
6:51 PM 82.0 °F 90.2 °F 77.0 °F 85% 30.06 in 10.0 mi South 5.8 mph - N/A   Unknown
7:51 PM 81.0 °F 87.9 °F 77.0 °F 88% 30.09 in 10.0 mi South 5.8 mph - N/A   Unknown
8:51 PM 81.0 °F 88.6 °F 78.1 °F 91% 30.09 in 10.0 mi South 3.5 mph - N/A   Unknown
9:51 PM 80.1 °F 85.8 °F 77.0 °F 90% 30.11 in 10.0 mi SSW 4.6 mph - N/A   Unknown
10:51 PM 77.0 °F - 73.0 °F 88% 30.12 in 10.0 mi West 4.6 mph - 0.00 in   Unknown
11:51 PM 78.1 °F - 73.9 °F 87% 30.12 in 10.0 mi NNW 6.9 mph - N/A   Unknown